GW0870 Weather Reports


Display with metric or nautical units.
time (UTC)temp
F
wind
direction
speed
MPH
gust
MPH
rain 1hr
in
rain 24hr
in
rain mn
in
humidity
%
barometer
mb
20260507120051 64 234 0.0 1.0 0.00 0.26 0.00 95 1010.2
20260507114540 64 0 0.0 1.0 0.00 0.26 0.00 95 1009.9
20260507113122 64 163 0.0 1.0 0.00 0.26 0.00 95 1009.8
20260507111545 64 254 1.0 4.0 0.00 0.26 0.00 95 1010.1
20260507110048 64 0 0.0 1.0 0.00 0.26 0.00 95 1009.7
20260507104559 64 0 0.0 0.0 0.00 0.26 0.00 95 1009.9
20260507103049 64 0 0.0 0.0 0.00 0.26 0.00 95 1009.9
20260507101544 64 0 0.0 0.0 0.00 0.26 0.00 95 1009.8
20260507100054 63 0 0.0 1.0 0.00 0.26 0.00 95 1009.9
20260507094543 64 0 0.0 1.0 0.00 0.26 0.00 95 1009.5
20260507093050 63 0 0.0 1.0 0.00 0.26 0.00 95 1009.8
20260507091550 63 0 0.0 3.0 0.00 0.26 0.00 95 1010.0
20260507090047 63 146 0.0 3.0 0.00 0.26 0.00 95 1009.6
20260507084556 63 138 0.0 2.0 0.00 0.26 0.00 95 1009.9
20260507083044 63 0 0.0 2.0 0.00 0.26 0.00 95 1009.7
20260507081551 63 0 0.0 2.0 0.00 0.26 0.00 94 1009.7
20260507080052 63 0 0.0 1.0 0.00 0.26 0.00 94 1009.9
20260507074548 63 0 0.0 0.0 0.00 0.26 0.00 94 1009.9
20260507073044 63 0 0.0 2.0 0.00 0.26 0.00 94 1010.2
20260507071546 63 115 0.0 2.0 0.00 0.26 0.00 94 1010.8
20260507070054 63 0 0.0 1.0 0.00 0.26 0.00 94 1011.2
20260507064550 63 115 0.0 1.0 0.00 0.26 0.00 94 1011.2
20260507063053 63 0 0.0 1.0 0.00 0.26 0.00 94 1011.7
20260507061547 63 0 0.0 0.0 0.00 0.26 0.00 94 1012.1
20260507060046 63 102 0.0 1.0 0.00 0.26 0.00 94 1011.4
20260507054544 63 0 0.0 1.0 0.00 0.26 0.00 94 1012.3
20260507053040 64 0 0.0 0.0 0.00 0.26 0.00 94 1012.8
20260507051541 64 0 0.0 1.0 0.00 0.26 0.00 94 1012.3
20260507050100 64 0 0.0 3.0 0.00 0.26 0.00 94 1011.7
20260507044552 64 0 0.0 2.0 0.00 0.26 0.00 94 1011.4
20260507043044 64 211 0.0 4.0 0.00 0.26 0.00 94 1012.0
20260507041545 64 265 0.0 4.0 0.00 0.26 0.00 93 1012.4
20260507040045 64 117 1.0 5.0 0.00 0.26 0.00 93 1012.7
20260507034546 63 199 0.0 4.0 0.00 0.26 0.26 93 1012.1
20260507033049 64 148 0.0 3.0 0.00 0.26 0.26 93 1011.2
20260507031545 64 0 0.0 1.0 0.00 0.26 0.26 93 1013.9
20260507030045 64 0 0.0 2.0 0.00 0.26 0.26 92 1014.0
20260507024546 64 240 0.0 1.0 0.08 0.26 0.26 92 1013.7
20260507023040 64 0 0.0 1.0 0.11 0.26 0.26 91 1013.4
20260507021555 65 0 0.0 5.0 0.11 0.26 0.26 91 1013.4
20260507020048 66 272 1.0 3.0 0.12 0.25 0.25 90 1013.9
20260507014547 66 211 1.0 5.0 0.05 0.18 0.18 90 1013.2
20260507013044 67 234 0.0 1.0 0.03 0.15 0.15 90 1012.7
20260507011545 68 236 1.0 9.0 0.04 0.15 0.15 89 1012.5
20260507010045 68 252 2.0 4.0 0.03 0.13 0.13 89 1012.5
20260507004540 69 233 0.0 1.0 0.03 0.13 0.13 89 1012.4
20260507003049 70 0 0.0 1.0 0.02 0.12 0.12 87 1012.4
20260507001541 71 200 0.0 1.0 0.01 0.11 0.11 84 1012.4
20260507000042 72 0 0.0 0.0 0.00 0.10 0.10 79 1011.7
20260506234550 73 0 0.0 0.0 0.00 0.10 0.10 78 1012.0
20260506233047 74 0 0.0 0.0 0.00 0.10 0.10 77 1011.9
20260506231539 74 0 0.0 1.0 0.00 0.10 0.10 75 1011.9
20260506230046 75 0 0.0 1.0 0.00 0.10 0.10 73 1011.8
20260506224546 75 215 0.0 3.0 0.00 0.10 0.10 73 1011.9
20260506223047 75 207 0.0 4.0 0.00 0.10 0.10 74 1012.0
20260506221551 75 226 2.0 5.0 0.00 0.10 0.10 73 1011.9
20260506220049 74 0 1.0 4.0 0.00 0.10 0.10 76 1011.8
20260506214546 74 186 1.0 7.0 0.00 0.10 0.10 75 1011.9
20260506213050 74 201 2.0 7.0 0.00 0.10 0.10 75 1011.7
20260506211549 74 142 2.0 5.0 0.00 0.10 0.10 75 1011.8
20260506210051 74 188 2.0 4.0 0.00 0.10 0.10 73 1011.6
20260506204556 74 243 2.0 11.0 0.00 0.10 0.10 74 1012.0
20260506203051 74 243 3.0 9.0 0.00 0.10 0.10 73 1012.4
20260506201556 74 290 1.0 10.0 0.00 0.10 0.10 75 1012.4
20260506200107 72 109 5.0 11.0 0.00 0.10 0.10 76 1012.5
20260506194558 70 158 2.0 7.0 0.00 0.10 0.10 81 1012.4
20260506193047 69 231 1.0 7.0 0.00 0.10 0.10 81 1012.5
20260506191545 68 183 1.0 8.0 0.00 0.10 0.10 84 1012.8
20260506190046 67 235 2.0 8.0 0.00 0.10 0.10 86 1012.5
20260506184545 65 94 1.0 7.0 0.00 0.10 0.10 89 1012.8
20260506183102 64 269 1.0 7.0 0.02 0.10 0.10 90 1012.3
20260506181557 64 144 2.0 8.0 0.02 0.10 0.10 89 1012.4
20260506180041 64 140 2.0 10.0 0.10 0.10 0.10 90 1014.1
20260506174547 63 217 1.0 6.0 0.10 0.10 0.10 89 1014.5
20260506173053 63 252 2.0 5.0 0.08 0.08 0.08 86 1015.1
20260506171548 67 175 4.0 14.0 0.08 0.08 0.08 77 1015.5
20260506170050 72 244 4.0 15.0 0.00 0.00 0.00 62 1015.0
20260506164551 74 234 2.0 12.0 0.00 0.00 0.00 56 1014.1
20260506163051 75 229 4.0 9.0 0.00 0.00 0.00 53 1014.0
20260506161551 75 177 2.0 11.0 0.00 0.00 0.00 57 1014.0
20260506160117 74 201 4.0 11.0 0.00 0.00 0.00 60 1014.1
20260506154545 73 283 4.0 12.0 0.00 0.00 0.00 64 1013.8
20260506153051 71 268 4.0 9.0 0.00 0.00 0.00 68 1013.7
20260506151605 70 215 3.0 8.0 0.00 0.00 0.00 68 1013.9
20260506150051 69 227 2.0 10.0 0.00 0.00 0.00 70 1014.0
20260506144552 68 105 4.0 11.0 0.00 0.00 0.00 71 1014.1
20260506143056 68 217 1.0 9.0 0.00 0.00 0.00 71 1014.1
20260506141550 68 225 3.0 8.0 0.00 0.00 0.00 71 1014.1
20260506140106 68 159 2.0 6.0 0.00 0.00 0.00 71 1013.7
20260506134545 68 236 2.0 8.0 0.00 0.00 0.00 71 1013.8
20260506133048 66 279 2.0 7.0 0.00 0.00 0.00 73 1013.7
20260506131552 65 234 2.0 7.0 0.00 0.00 0.00 74 1013.7
20260506130049 65 130 2.0 11.0 0.00 0.00 0.00 74 1013.3
20260506124540 64 161 2.0 7.0 0.00 0.00 0.00 74 1014.0
20260506123039 64 264 2.0 7.0 0.00 0.00 0.00 74 1014.2
20260506121547 64 202 4.0 9.0 0.00 0.00 0.00 74 1014.6